Simultaneous Nadir Overpasses (SNOs) Predictions

Prediction of SNOs between NOAA-19 and METOP-C Satellite Orbit:

Table of predicted SNOs for the next 14.0 days since TLE Epoch: 7/8/2023
Index Date (NOAA-19) Time (NOAA-19) Lat,Lon (NOAA-19) SZA (NOAA-19 ) Date (METOP-C) Time (METOP-C) Lat,Lon (METOP-C) SZA (METOP-C ) Distance(km) Time Diff (sec)
1 07/11/2023 20:17:22 80.90, -90.70 60.31 07/11/2023 20:18:35 80.90, -90.73 60.33 0.45 73
2 07/11/2023 21:08:16 -80.90, 76.66 119.68 07/11/2023 21:09:17 -80.90, 76.63 119.66 0.65 61
3 07/11/2023 21:59:20 80.91,-115.82 60.36 07/11/2023 21:59:56 80.91,-115.87 60.37 0.82 36
4 07/11/2023 22:50:14 -80.91, 51.54 119.63 07/11/2023 22:50:38 -80.91, 51.49 119.63 1.03 24
5 07/11/2023 23:41:19 80.91,-141.32 60.37 07/11/2023 23:41:18 80.90,-141.37 60.36 1.05 1
6 07/12/2023 00:32:13 -80.91, 26.05 119.62 07/12/2023 00:32:00 -80.90, 25.99 119.64 1.23 13
7 07/12/2023 01:23:17 80.91,-166.44 60.41 07/12/2023 01:22:39 80.91,-166.51 60.39 1.21 38
8 07/12/2023 02:14:11 -80.91, 0.93 119.58 07/12/2023 02:13:21 -80.91, 0.85 119.60 1.44 50



Historial Predications of SNOs between NOAA-19 and METOP-C
